Location: *
(50.9167°S, 179.4000°W)
Time: 21:10:49
(UTC+00:00)

Cosmos 468 Rocket - Pass Details

Date: 03 March 2024
Orbit: 742 x 778 km, 74.0° (Epoch: 16 April)

Event Time Altitude Azimuth Distance (km) Brightness Sun altitude
Rises 15:49:26 0° 205° (SSW) 3,299 7.4 -15.8°
Reaches altitude 10° 15:51:51 10° 205° (SSW) 2,362 6.6 -15.5°
Maximum altitude 15:57:15 87° 294° (WNW) 790 4.0 -14.7°
Drops below altitude 10° 16:02:32 10° 21° (NNE) 2,313 6.4 -14.0°
Sets 16:04:52 0° 21° (NNE) 3,226 7.2 -13.7°
